Regional Weather Roundup
Issued by NWS

Home | Current Version | Previous Version | Text Only | Print | Product List | Glossary Off
Versions: 1 2 3 4 5 6 7 8 9 10 11 12 13 14 15 16 17 18 19 20 21 22 23 24 25 26 27 28 29 30 31 32 33 34 35 36 37 38 39 40 41 42 43 44 45 46 47 48 49 50

000
ASUS43 KOAX 010802
RWRNE

WEATHER ROUNDUP FOR NEBRASKA
NATIONAL WEATHER SERVICE OMAHA NE
300 AM CDT MON SEP 01 2014

NOTES: SATELLITE DATA IS BEING USED TO AUGMENT CLOUD COVER ABOVE
       12000 FEET.
       "FAIR" INDICATES FEW OR NO CLOUDS BELOW 12,000 FEET WITH NO
       SIGNIFICANT WEATHER AND/OR OBSTRUCTIONS TO VISIBILITY.

  * THESE STATIONS DO NOT REPORT WEATHER SUCH AS RAIN...SNOW OR FOG.

NEZ001>004-019>022-054>056-010900-
NEBRASKA PANHANDLE

CITY           SKY/WX    TMP DP  RH WIND       PRES   REMARKS
SCOTTSBLUFF    CLEAR     50  48  93 NW3       29.99R
ALLIANCE       CLEAR     45  44  97 S5        29.96R
CHADRON        CLEAR     51  49  92 W8        29.94S
KIMBALL        CLEAR     48  45  89 W6        30.01S
SIDNEY         CLEAR     50  45  83 NW10      29.99S
$$

NEZ057>060-069>072-079>082-010900-
SOUTHWEST NEBRASKA

CITY           SKY/WX    TMP DP  RH WIND       PRES   REMARKS
NORTH PLATTE   CLEAR     52  50  93 NW8       29.90R
IMPERIAL       CLEAR     55  50  83 NW6       29.94R
LEXINGTON      PTCLDY    56  54  92 SW5       29.87R
MCCOOK         CLEAR     58  53  84 W9        29.90R
OGALLALA       CLEAR     52  50  90 NW8       29.93R
$$

NEZ005>010-023>029-035>040-094-010900-
NORTH CENTRAL NEBRASKA

CITY           SKY/WX    TMP DP  RH WIND       PRES   REMARKS
VALENTINE      CLEAR     54  53  97 W9        29.85R
AINSWORTH      CLEAR     55  53  95 W7        29.84R
BROKEN BOW     CLEAR     57  54  89 NW9       29.85R
O`NEILL        CLEAR     59  58  97 W6        29.81R
ORD            CLOUDY    61  58  90 NW8       29.81R
THEDFORD       CLEAR     54  52  95 W7        29.89R
$$

NEZ041-046>049-061>064-073>077-083>087-010900-
SOUTH CENTRAL NEBRASKA

CITY           SKY/WX    TMP DP  RH WIND       PRES   REMARKS
GRAND ISLAND   PTCLDY    61  56  83 W9        29.79S
AURORA         MOCLDY    61  60  97 W6        29.78S
HASTINGS       PTCLDY    62  55  77 NW9       29.79F
HEBRON         CLOUDY    67  64  87 W5        29.76S
HOLDREGE       PTCLDY    59  55  87 CALM      29.83S
KEARNEY *      CLEAR     63  54  72 NW5       29.84R
$$

NEZ011>018-030>034-042>045-010900-
NORTHEAST NEBRASKA

CITY           SKY/WX    TMP DP  RH WIND       PRES   REMARKS
NORFOLK        CLEAR     61  58  90 W6        29.75R
ALBION         PTCLDY    60  57  88 NW12      29.78S
BLAIR          CLOUDY    68  65  92 S9        29.69F
FREMONT        CLOUDY    66  64  93 SW3       29.71S
TEKAMAH        CLOUDY    64  63  96 NW5       29.72R
WAYNE          PTCLDY    60  59  96 SW3       29.74R
$$

NEZ050>053-065>068-078-088>093-010900-
SOUTHEAST NEBRASKA

CITY           SKY/WX    TMP DP  RH WIND       PRES   REMARKS
LINCOLN        CLOUDY    68  65  90 SW7       29.73S
OMAHA EPPLEY   CLOUDY    69  64  84 S10       29.70F
BEATRICE       CLOUDY    67  65  94 SW7       29.74F
FALLS CITY     LGT RAIN  68  65  90 S22G29    29.72F
NEBRASKA CITY  CLOUDY    67  67 100 SW16G23   29.72F
PLATTSMOUTH    CLOUDY    67  64  91 S15G21    29.70F
$$

NEZ044-045-051>053-067-010900-
OMAHA AREA

CITY           SKY/WX    TMP DP  RH WIND       PRES   REMARKS
OMAHA EPPLEY   CLOUDY    69  64  84 S10       29.70F
BLAIR          CLOUDY    68  65  92 S9        29.69F
FREMONT        CLOUDY    66  64  93 SW3       29.71S
MILLARD        CLOUDY    68  65  90 S7        29.69F
OFFUTT AFB     CLOUDY    68  67  99 S10       29.69F
PLATTSMOUTH    CLOUDY    67  64  91 S15G21    29.70F
WAHOO          CLOUDY    66  64  92 CALM      29.70F
$$



USA.gov is the U.S. government's official web portal to all federal, state and local government web resources and services.